Powrót do katalogu

YUNYAO-1 44

AktywnyNaukaSSO
NORAD 63345·PAYLOAD·🇨🇳 China

Wystrzelony Mar 21, 2025 z Jiuquan Satellite Launch Center

Loading…

Następne Przeloty (najbliższe 24 godziny)

TLE

ŚwieżeSource: Space-Track

Epoka: Sep 14, 2026, 14:10 UTC

1 63345U 25059B   26257.59061282  .00003020  00000-0  18183-3 0  9996
2 63345  97.6129  78.4830 0015958 206.6107 153.4305 15.11484767 81809

Śledź YUNYAO-1 44 w czasie rzeczywistym z AllMySat

Download on the App Store